Back to catalog

SL-14 DEB

AlivePO
NORAD 45271·DEBRIS·🇷🇺 Russia

Launched Aug 15, 1991 from Plesetsk Cosmodrome

Loading…

Next Passes (next 24 hours)

TLE

FreshSource: Space-Track

Epoch: Sep 13, 2026, 23:38 UTC

1 45271U 91056H   26256.98508216 -.00000016  00000-0 -84610-4 0  9992
2 45271  82.3845  95.4964 0050696 127.0317 233.5453 13.06728279313439

Track SL-14 DEB in real time with AllMySat

Download on the App Store